Flag for Netherlands Weather past 2 weeks in Groningen, Netherlands

Now
63 °F

Clear.


Feels Like: 63 °F
Forecast: 53 / 61 °F
Wind: 14 mph from Southwest

Location: Groningen Eelde Airport

Current Time: Aug 21, 2014 at 12:14:42 PM

Latest Report: Aug 21, 2014 at 11:55 AM


Visibility: N/A

Pressure: 29.95 "Hg

Humidity: 64%

Dew point: 50 °F

Location of GroningenLocation

Historic Weather in Groningen — Graph

°F

Groningen temperature yesterday

Maximum temperature yesterday: 63 °F (at 2:55 PM)
Minimum temperature yesterday: 46 °F (at 11:25 PM)
Average temperature yesterday: 54 °F

Past Weeks' High & Low Weather Summary

 TemperatureHumidityPressure
High77 °F (Aug 6, 1:25 PM)100% (Aug 7, 3:25 AM)30.04 "Hg (Aug 7, 3:25 AM)
Low43 °F (Aug 21, 4:55 AM)42% (Aug 6, 2:25 PM)29.45 "Hg (Aug 10, 8:25 PM)
Average60 °F82%29.78 "Hg
* Reported Aug 6 10:25 AM — Aug 21 10:55 AM, Groningen, Weather by CustomWeather, © 2014

Note: Actual official high and low records may vary slightly from our data, if they occured in-between our weather recording intervals... More about our weather records

Advertising

Groningen weather history for previous 24 hours

 ConditionsComfort  
Time TempWeatherWind HumidityBarometerVisibility
10:55 AM
Aug 21
61 °FCool.12 mph63%29.95 "HgN/A
10:25 AM59 °FCool.12 mph68%29.95 "HgN/A
9:55 AM57 °FCool.10 mph77%29.95 "HgN/A
9:25 AM55 °FCool.7 mph88%29.95 "HgN/A
8:55 AM54 °FCool.7 mph88%29.95 "HgN/A
8:25 AM52 °FCool.6 mph94%29.95 "HgN/A
7:55 AM50 °FCool.5 mph94%29.95 "HgN/A
7:25 AM46 °FCool.6 mph93%29.95 "HgN/A
6:55 AM45 °FClear.3 mph93%29.95 "Hg6 mi
6:25 AM43 °FClear.6 mph100%29.95 "Hg4 mi
5:55 AM43 °FClear.5 mph100%29.95 "Hg4 mi
5:25 AM45 °FQuite cool.5 mph93%29.95 "Hg5 mi
4:55 AM43 °FQuite cool.6 mph100%29.95 "HgN/A
4:25 AM45 °FQuite cool.6 mph100%29.95 "HgN/A
3:55 AM45 °FPassing clouds.3 mph100%29.95 "Hg6 mi
3:25 AM45 °FClear.5 mph100%29.95 "Hg4 mi
2:55 AM46 °FClear.5 mph93%29.98 "HgN/A
2:25 AM46 °FClear.5 mph100%29.98 "HgN/A
1:55 AM46 °FPassing clouds.6 mph100%29.98 "HgN/A
1:25 AM46 °FCool.3 mph100%29.98 "HgN/A
12:55 AM46 °FCool.5 mph93%29.98 "HgN/A
12:25 AM46 °FCool.3 mph93%29.98 "HgN/A
11:55 PM
Aug 20
46 °FCool.6 mph93%29.98 "HgN/A
11:25 PM46 °FCool.6 mph93%29.98 "HgN/A
10:55 PM48 °FClear.6 mph94%29.98 "HgN/A
10:25 PM52 °FClear.5 mph88%29.98 "HgN/A
9:55 PM52 °FPassing clouds.6 mph88%29.98 "HgN/A
9:25 PM50 °FClear.8 mph88%29.98 "HgN/A
8:55 PM52 °FClear.6 mph88%29.95 "HgN/A
8:25 PM54 °FClear.7 mph82%29.95 "HgN/A
7:55 PM55 °FPassing clouds.7 mph72%29.95 "HgN/A
7:25 PM55 °FLight rain. Passing clouds.8 mph77%29.95 "HgN/A
6:55 PM57 °FPassing clouds.6 mph72%29.95 "HgN/A
6:25 PM57 °FPassing clouds.6 mph72%29.95 "HgN/A
5:55 PM55 °FScattered clouds.8 mph82%29.95 "HgN/A
5:25 PM61 °FPassing clouds.7 mph68%29.95 "HgN/A
4:55 PM57 °FPassing clouds.8 mph72%29.95 "HgN/A
4:25 PM57 °FBroken clouds.10 mph82%29.98 "HgN/A
3:55 PM55 °FScattered clouds.15 mph72%29.95 "HgN/A
3:25 PM59 °FBroken clouds.13 mph63%29.95 "HgN/A
2:55 PM63 °FPartly sunny.13 mph59%29.95 "HgN/A
2:25 PM57 °FBroken clouds.3 mph77%29.95 "HgN/A
1:55 PM55 °FPartly sunny.13 mph77%29.95 "HgN/A
1:25 PM61 °FPassing clouds.13 mph72%29.95 "HgN/A
12:55 PM55 °FScattered clouds.12 mph82%29.95 "HgN/A
12:25 PM54 °FLight rain. Scattered clouds.13 mph82%29.95 "HgN/A
Weather by CustomWeather, © 2014

See weather overviewHow to use our weather pages